Location: Janesville
(42.6830°N, 89.0190°W)
Time: 12:12:05
(UTC-06:00)

Hubble Space Telescope - Visible Passes

Search period start: 12 February 2016 00:00
Search period end: 22 February 2016 00:00
Orbit: 540 x 543 km, 28.5° (Epoch: 12 February)

Date Brightness Start Highest point End Pass type
(mag) Time Alt. Az. Time Alt. Az. Time Alt. Az.
15 Feb 3.3 18:29:43 10° S 18:30:37 11° S 18:31:31 10° SSE visible
16 Feb 3.3 18:19:49 10° SSW 18:21:01 11° S 18:22:13 10° SSE visible
17 Feb 3.3 18:10:07 10° SSW 18:11:25 11° S 18:12:43 10° SSE visible
18 Feb 3.4 18:00:34 10° SSW 18:01:48 11° S 18:03:04 10° SSE visible
